Total_Precipitation_Accumulation
2.46 2.62 2.04 1.22 0.83 0.59 0.47 0.42 0.37 0.33 0.34 0.45 0.48 0.39 0.37 0.39 0.43 0.42 0.42 0.47 0.53 0.57 0.58 0.59 0.66 0.75 0.81 0.90 1.00 1.10 1.22 1.27 1.35 1.54 1.65 1.67 1.69 1.67 1.71 1.70 1.63 1.60 1.51 1.45
2.34 1.97 1.11 0.69 0.68 0.74 0.69 0.59 0.43 0.35 0.32 0.44 0.47 0.43 0.38 0.36 0.39 0.40 0.38 0.42 0.50 0.54 0.57 0.58 0.61 0.67 0.69 0.79 0.90 0.98 1.10 1.23 1.30 1.45 1.62 1.64 1.65 1.65 1.69 1.78 1.83 1.76 1.67 1.59
1.60 1.11 0.71 0.85 0.98 1.06 0.94 0.68 0.50 0.45 0.42 0.52 0.55 0.56 0.41 0.37 0.33 0.33 0.33 0.38 0.43 0.48 0.53 0.56 0.59 0.60 0.60 0.65 0.76 0.87 0.97 1.07 1.13 1.28 1.49 1.64 1.80 1.86 1.81 1.83 1.85 1.78 1.75 1.72
1.36 0.80 0.70 0.97 1.07 1.05 1.02 0.58 0.51 0.59 0.78 0.86 0.69 0.77 0.45 0.35 0.31 0.29 0.29 0.33 0.35 0.36 0.41 0.49 0.53 0.56 0.56 0.56 0.62 0.71 0.85 1.00 1.09 1.22 1.37 1.47 1.61 1.78 1.78 1.72 1.71 1.71 1.74 1.82
1.53 0.81 0.73 0.90 0.82 0.81 0.83 0.60 0.69 0.83 1.09 1.24 0.86 0.75 0.44 0.27 0.29 0.26 0.25 0.27 0.29 0.31 0.33 0.38 0.42 0.46 0.50 0.54 0.57 0.59 0.68 0.83 0.99 1.15 1.28 1.43 1.52 1.56 1.65 1.70 1.75 1.77 1.77 1.76
1.20 0.78 0.72 0.65 0.54 0.69 0.89 1.08 1.37 1.59 2.16 2.33 0.90 0.60 0.39 0.24 0.26 0.23 0.21 0.23 0.22 0.25 0.28 0.34 0.38 0.41 0.46 0.50 0.53 0.55 0.58 0.65 0.80 0.96 1.15 1.26 1.36 1.45 1.59 1.67 1.69 1.69 1.71 1.74
1.63 1.10 0.84 0.64 0.80 1.07 1.41 2.03 3.12 3.56 3.65 2.25 0.52 0.38 0.36 0.22 0.17 0.17 0.17 0.20 0.18 0.18 0.20 0.23 0.27 0.33 0.38 0.43 0.47 0.54 0.59 0.64 0.72 0.86 1.02 1.07 1.14 1.27 1.43 1.56 1.63 1.67 1.68 1.68
1.52 1.26 0.85 0.69 0.77 1.09 1.26 1.58 2.23 2.26 1.55 0.69 0.28 0.32 0.30 0.18 0.12 0.10 0.11 0.15 0.17 0.16 0.16 0.17 0.18 0.21 0.27 0.32 0.38 0.44 0.52 0.57 0.61 0.74 0.89 0.92 0.97 1.07 1.21 1.35 1.48 1.53 1.54 1.54
1.08 0.86 0.48 0.42 0.45 0.66 1.09 1.29 1.13 1.52 1.20 0.68 0.40 0.29 0.20 0.13 0.09 0.09 0.10 0.12 0.16 0.15 0.14 0.19 0.17 0.16 0.19 0.25 0.32 0.39 0.46 0.50 0.53 0.62 0.75 0.88 0.95 1.04 1.09 1.10 1.18 1.27 1.32 1.37
1.10 0.99 0.49 0.40 0.60 0.75 0.88 1.12 1.58 2.46 2.43 1.27 0.50 0.26 0.23 0.17 0.11 0.10 0.11 0.13 0.14 0.14 0.14 0.18 0.19 0.17 0.18 0.23 0.28 0.33 0.40 0.47 0.54 0.62 0.70 0.77 0.85 0.94 1.03 1.10 1.13 1.15 1.19 1.24
1.30 1.54 0.97 0.71 0.87 0.83 0.87 1.25 1.80 2.30 2.11 1.42 0.75 0.35 0.24 0.19 0.14 0.12 0.13 0.14 0.15 0.14 0.14 0.17 0.19 0.18 0.19 0.24 0.28 0.31 0.38 0.45 0.51 0.59 0.68 0.72 0.77 0.83 0.91 1.00 1.04 1.07 1.11 1.15
1.38 2.16 1.74 0.83 0.54 0.51 0.76 0.88 1.23 2.05 1.90 1.15 0.94 0.53 0.20 0.17 0.15 0.13 0.12 0.13 0.16 0.16 0.15 0.17 0.20 0.20 0.21 0.23 0.26 0.29 0.31 0.39 0.43 0.48 0.57 0.61 0.68 0.77 0.89 0.96 1.00 1.04 1.10 1.12
1.92 3.06 3.19 2.15 1.31 0.93 1.00 0.85 0.96 1.49 1.96 1.69 1.41 0.69 0.20 0.16 0.17 0.15 0.14 0.14 0.15 0.17 0.16 0.16 0.17 0.20 0.21 0.23 0.23 0.25 0.27 0.30 0.34 0.39 0.45 0.52 0.59 0.66 0.76 0.83 0.88 0.94 0.99 1.04
2.57 3.30 2.73 2.01 1.14 0.91 0.98 0.76 0.75 1.57 2.51 1.83 0.95 0.46 0.24 0.21 0.22 0.20 0.18 0.16 0.15 0.17 0.17 0.15 0.16 0.19 0.20 0.22 0.24 0.25 0.26 0.27 0.30 0.35 0.40 0.45 0.51 0.57 0.64 0.72 0.78 0.84 0.87 0.90
2.99 3.58 1.83 0.89 0.55 0.58 0.73 0.67 0.64 0.93 1.12 1.22 0.66 0.35 0.27 0.26 0.24 0.22 0.20 0.19 0.18 0.17 0.16 0.15 0.16 0.19 0.20 0.21 0.21 0.24 0.28 0.29 0.31 0.34 0.39 0.44 0.47 0.52 0.60 0.67 0.72 0.78 0.81 0.82
2.98 3.41 2.05 1.22 0.57 0.62 0.82 0.61 0.53 0.58 0.59 0.61 0.47 0.40 0.30 0.24 0.19 0.19 0.20 0.20 0.19 0.18 0.18 0.18 0.20 0.20 0.20 0.20 0.21 0.23 0.26 0.29 0.31 0.33 0.36 0.40 0.44 0.47 0.52 0.58 0.65 0.73 0.77 0.79
3.49 3.79 3.51 2.34 0.85 1.43 1.75 0.61 0.31 0.34 0.35 0.38 0.46 0.46 0.32 0.20 0.16 0.19 0.21 0.21 0.21 0.21 0.20 0.20 0.22 0.23 0.23 0.22 0.22 0.24 0.24 0.24 0.25 0.29 0.33 0.37 0.41 0.43 0.45 0.49 0.57 0.65 0.71 0.75
3.25 3.72 4.71 4.08 2.68 3.23 1.27 0.20 0.14 0.20 0.24 0.25 0.34 0.38 0.31 0.22 0.18 0.21 0.24 0.23 0.22 0.22 0.22 0.22 0.24 0.26 0.26 0.25 0.24 0.25 0.26 0.27 0.27 0.28 0.32 0.35 0.38 0.42 0.43 0.44 0.47 0.54 0.61 0.69
1.87 2.96 5.00 5.22 4.07 2.11 0.39 0.11 0.14 0.21 0.29 0.32 0.32 0.29 0.22 0.17 0.19 0.22 0.21 0.22 0.23 0.23 0.23 0.24 0.25 0.27 0.27 0.28 0.27 0.26 0.29 0.31 0.32 0.34 0.36 0.38 0.38 0.39 0.40 0.41 0.43 0.47 0.51 0.58
1.48 2.35 4.67 5.47 4.54 2.03 0.37 0.14 0.12 0.30 0.61 0.51 0.42 0.35 0.27 0.24 0.32 0.25 0.19 0.20 0.21 0.23 0.24 0.24 0.25 0.26 0.27 0.31 0.31 0.31 0.32 0.33 0.36 0.38 0.39 0.40 0.41 0.42 0.43 0.41 0.42 0.45 0.50 0.55
2.07 3.38 4.62 4.29 3.62 1.59 0.44 0.19 0.23 0.69 0.86 0.53 0.38 0.33 0.30 0.33 0.37 0.32 0.25 0.22 0.21 0.21 0.22 0.23 0.24 0.25 0.26 0.29 0.31 0.32 0.32 0.35 0.38 0.39 0.39 0.39 0.41 0.42 0.42 0.41 0.42 0.45 0.49 0.55
1.05 2.00 2.51 2.60 3.18 1.73 0.38 0.28 0.54 0.74 0.50 0.39 0.31 0.28 0.31 0.30 0.26 0.25 0.24 0.23 0.21 0.21 0.21 0.21 0.22 0.23 0.25 0.27 0.29 0.29 0.31 0.34 0.35 0.37 0.38 0.38 0.38 0.38 0.39 0.41 0.44 0.46 0.51 0.57
0.60 0.87 1.06 1.31 1.34 0.70 0.41 0.44 0.54 0.50 0.44 0.34 0.28 0.25 0.25 0.23 0.21 0.20 0.20 0.20 0.21 0.21 0.22 0.22 0.22 0.22 0.23 0.26 0.27 0.29 0.32 0.32 0.33 0.34 0.37 0.39 0.40 0.40 0.41 0.44 0.48 0.53 0.57 0.63
0.55 0.54 0.75 0.87 0.68 0.50 0.45 0.45 0.47 0.45 0.43 0.35 0.30 0.28 0.25 0.24 0.21 0.20 0.20 0.21 0.21 0.22 0.23 0.24 0.24 0.23 0.24 0.25 0.26 0.30 0.32 0.32 0.31 0.32 0.36 0.39 0.43 0.46 0.48 0.49 0.52 0.57 0.63 0.70
0.56 0.60 0.79 0.86 0.61 0.52 0.51 0.47 0.45 0.41 0.37 0.33 0.30 0.27 0.27 0.26 0.25 0.23 0.22 0.22 0.23 0.23 0.24 0.25 0.25 0.25 0.26 0.27 0.28 0.30 0.32 0.32 0.33 0.34 0.35 0.38 0.42 0.46 0.52 0.55 0.58 0.63 0.68 0.79
0.43 0.48 0.65 0.69 0.52 0.57 0.53 0.44 0.42 0.42 0.41 0.39 0.36 0.32 0.30 0.30 0.29 0.26 0.25 0.24 0.25 0.25 0.26 0.26 0.26 0.26 0.26 0.27 0.28 0.30 0.32 0.34 0.35 0.36 0.35 0.37 0.41 0.45 0.49 0.54 0.61 0.69 0.72 0.79